Flag for Finland Weather past 2 weeks in Helsinki, Finland

Now
64 °F

Sunny.


Feels Like: 64 °F
Forecast: 50 / 64 °F
Wind: 8 mph from South

Location: Helsinki Malmi Airport

Current Time: Sep 19, 2014 at 5:11:23 PM

Latest Report: Sep 19, 2014 at 4:20 PM


Visibility: 10 mi

Pressure: 30.12 "Hg

Humidity: 64%

Dew point: 52 °F

Location of HelsinkiLocation

Historic Weather in Helsinki — Graph

°F

Helsinki temperature yesterday

Maximum temperature yesterday: 64 °F (at 2:50 PM)
Minimum temperature yesterday: 39 °F (at 3:50 AM)
Average temperature yesterday: 51 °F

Past Weeks' High & Low Weather Summary

 TemperatureHumidityPressure
High68 °F (Sep 4, 3:20 PM)100% (Sep 6, 12:20 AM)30.45 "Hg (Sep 6, 12:20 AM)
Low36 °F (Sep 16, 5:50 AM)49% (Sep 15, 12:20 PM)29.89 "Hg (Sep 9, 7:50 PM)
Average56 °F85%30.22 "Hg
* Reported Sep 4 3:20 PM — Sep 19 3:50 PM, Helsinki, Weather by CustomWeather, © 2014

Note: Actual official high and low records may vary slightly from our data, if they occured in-between our weather recording intervals... More about our weather records

Advertising

Helsinki weather history for previous 24 hours

 ConditionsComfort  
Time TempWeatherWind HumidityBarometerVisibility
3:50 PM
Sep 19
64 °FPassing clouds.7 mph68%30.15 "HgN/A
3:20 PM64 °FPassing clouds.8 mph68%30.15 "HgN/A
2:50 PM64 °FPassing clouds.7 mph64%30.15 "HgN/A
2:20 PM63 °FSunny.7 mph68%30.15 "Hg10 mi
1:50 PM64 °FPassing clouds.8 mph64%30.15 "HgN/A
1:20 PM64 °FPassing clouds.8 mph52%30.15 "HgN/A
12:50 PM64 °FPassing clouds.7 mph56%30.18 "HgN/A
12:20 PM64 °FPassing clouds.8 mph56%30.18 "HgN/A
11:50 AM64 °FPassing clouds.5 mph60%30.18 "HgN/A
11:20 AM63 °FSunny.7 mph59%30.18 "Hg10 mi
10:50 AM63 °FPassing clouds.5 mph59%30.18 "HgN/A
10:20 AM61 °FSunny.3 mph72%30.18 "Hg10 mi
9:50 AM57 °FSunny.1 mph94%30.18 "Hg10 mi
9:20 AM54 °FSunny.No wind94%30.18 "Hg10 mi
8:50 AM50 °FSunny.No wind100%30.18 "Hg10 mi
8:20 AM48 °FPartly sunny.No wind100%30.21 "Hg5 mi
7:50 AM48 °FPassing clouds.No wind94%30.21 "Hg4 mi
7:20 AM46 °FPassing clouds.No wind100%30.21 "Hg5 mi
6:50 AM46 °FPassing clouds.No wind93%30.21 "Hg4 mi
6:20 AM46 °FPassing clouds.1 mph100%30.21 "Hg5 mi
5:50 AM46 °FClear.No wind100%30.21 "Hg10 mi
5:20 AM46 °FOvercast.No wind100%30.21 "Hg5 mi
4:50 AM45 °FClear.No wind100%30.21 "Hg10 mi
4:20 AM45 °FClear.1 mph100%30.21 "Hg10 mi
3:50 AM43 °FClear.No wind100%30.21 "Hg10 mi
3:20 AM43 °FFog.No wind100%30.24 "Hg1 mi
2:50 AM43 °FFog.No wind93%30.24 "Hg0 mi
2:20 AM43 °FFog.No wind93%30.24 "Hg0 mi
1:50 AM43 °FPassing clouds.No wind100%30.24 "Hg0 mi
1:20 AM43 °FFog.No wind100%30.24 "Hg0 mi
12:50 AM43 °FLight fog.No wind100%30.24 "Hg0 mi
12:20 AM45 °FPassing clouds.No wind100%30.27 "Hg1 mi
11:50 PM
Sep 18
45 °FLight fog.No wind100%30.27 "Hg0 mi
11:20 PM45 °FFog.No wind100%30.27 "Hg0 mi
10:20 PM46 °FFog.No wind100%30.27 "Hg0 mi
9:50 PM48 °FLight fog.No wind94%30.27 "Hg0 mi
9:20 PM48 °FLight fog.No wind100%30.27 "Hg0 mi
8:50 PM50 °FFog.No wind94%30.27 "HgN/A
8:20 PM52 °FFog.No wind100%30.27 "HgN/A
7:50 PM54 °FFog.1 mph94%30.24 "HgN/A
7:20 PM57 °FSunny.1 mph82%30.24 "Hg10 mi
6:50 PM61 °FPassing clouds.3 mph72%30.24 "HgN/A
6:20 PM61 °FPassing clouds.6 mph72%30.27 "HgN/A
5:50 PM61 °FPassing clouds.6 mph72%30.27 "HgN/A
5:20 PM63 °FPassing clouds.6 mph64%30.27 "HgN/A
Weather by CustomWeather, © 2014

See weather overviewHow to use our weather pages